ALOS-2

Last updated on Thu Oct 30 2025 00:02:16 GMT+0000 (Coordinated Universal Time)

1 39766U 14029A 25302.51107309 .00002706 00000+0 36926-3 0 9998 2 39766 97.9228 37.9864 0001120 97.7554 262.3785 14.79450881617473
UTC large
Height (km)
Speed (km/s)
/
Latitude / Longitude
Inclination (degrees)
Orbital Period (minutes)
Azimuth
Elevation
Range (km)
Doppler Factor

Next 0 passes for location: London (51.5072 / 0.1276)

Sorry there are no passes over London.